AVA9552 SKBO-SKCG

Flight info

Callsign AVA9552
Flight time 0h 56m
Altitude 36000
Route OSUSU4R GIKPU UQ120 YACAR A301 EJA UM782 XOGEN UQ115 UGREB UGREB3B
Aircraft A320/M-SDE3FGHIRWY/LB1

Departure

Time 2026-04-26 20:40
Airport El Dorado International Airport (SKBO)

Arrival

Time 2026-04-26 21:37
Airport Rafael Nuñez International Airport (SKCG)
Time Latitude Longitude Altitude Speed Heading
2026-04-26 20:18 4.69905 -74.14506 8373 ft 0 kts 213°
2026-04-26 20:27 4.69917 -74.14498 8372 ft 3 kts 218°
2026-04-26 20:27 4.69932 -74.14484 8373 ft 3 kts 229°
2026-04-26 20:28 4.69944 -74.14468 8373 ft 3 kts 243°
2026-04-26 20:28 4.69952 -74.14450 8373 ft 3 kts 260°
2026-04-26 20:28 4.69953 -74.14430 8373 ft 3 kts 281°
2026-04-26 20:28 4.69947 -74.14413 8373 ft 2 kts 304°
2026-04-26 20:29 4.69945 -74.14409 8373 ft 0 kts 307°
2026-04-26 20:31 4.69952 -74.14419 8373 ft 5 kts 306°
2026-04-26 20:31 4.69976 -74.14453 8372 ft 6 kts 306°
2026-04-26 20:31 4.70000 -74.14486 8373 ft 6 kts 306°
2026-04-26 20:31 4.70038 -74.14535 8373 ft 11 kts 308°
2026-04-26 20:32 4.70099 -74.14558 8372 ft 10 kts 30°
2026-04-26 20:32 4.70150 -74.14521 8373 ft 8 kts 37°
2026-04-26 20:32 4.70202 -74.14482 8371 ft 10 kts 37°
2026-04-26 20:32 4.70264 -74.14435 8373 ft 12 kts 37°
2026-04-26 20:33 4.70328 -74.14386 8371 ft 10 kts 37°
2026-04-26 20:33 4.70378 -74.14348 8373 ft 8 kts 37°
2026-04-26 20:33 4.70399 -74.14299 8373 ft 12 kts 105°
2026-04-26 20:33 4.70334 -74.14207 8373 ft 18 kts 127°
2026-04-26 20:34 4.70258 -74.14106 8373 ft 19 kts 127°
2026-04-26 20:34 4.70179 -74.14002 8373 ft 19 kts 127°
2026-04-26 20:34 4.70096 -74.13893 8372 ft 20 kts 127°
2026-04-26 20:34 4.70012 -74.13781 8373 ft 20 kts 127°
2026-04-26 20:35 4.69925 -74.13667 8373 ft 21 kts 127°
2026-04-26 20:35 4.69837 -74.13550 8373 ft 21 kts 128°
2026-04-26 20:35 4.69749 -74.13432 8373 ft 22 kts 126°
2026-04-26 20:35 4.69657 -74.13311 8373 ft 22 kts 127°
2026-04-26 20:36 4.69563 -74.13188 8373 ft 22 kts 127°
2026-04-26 20:36 4.69468 -74.13063 8372 ft 23 kts 127°
2026-04-26 20:36 4.69374 -74.12938 8372 ft 23 kts 126°
2026-04-26 20:36 4.69279 -74.12811 8372 ft 23 kts 128°
2026-04-26 20:37 4.69184 -74.12687 8373 ft 22 kts 127°
2026-04-26 20:37 4.69144 -74.12591 8372 ft 14 kts 88°
2026-04-26 20:37 4.69177 -74.12538 8371 ft 0 kts 26°
2026-04-26 20:37 4.69179 -74.12537 8371 ft 1 kts 26°
2026-04-26 20:38 4.69184 -74.12535 8372 ft 1 kts 26°
2026-04-26 20:38 4.69191 -74.12532 8372 ft 2 kts 20°
2026-04-26 20:38 4.69216 -74.12524 8371 ft 6 kts 16°
2026-04-26 20:38 4.69259 -74.12512 8371 ft 5 kts 12°
2026-04-26 20:39 4.69292 -74.12515 8371 ft 8 kts 341°
2026-04-26 20:39 4.69318 -74.12539 8371 ft 7 kts 309°
2026-04-26 20:39 4.69425 -74.12682 8369 ft 54 kts 307°
2026-04-26 20:39 4.69787 -74.13164 8370 ft 116 kts 307°
2026-04-26 20:40 4.70370 -74.13933 8371 ft 163 kts 307°
2026-04-26 20:40 4.71129 -74.14910 8774 ft 180 kts 307°
2026-04-26 20:40 4.71950 -74.15884 9529 ft 185 kts 309°
2026-04-26 20:40 4.72750 -74.16910 10169 ft 189 kts 307°
2026-04-26 20:41 4.73653 -74.17939 10452 ft 207 kts 326°
2026-04-26 20:41 4.75075 -74.18370 10636 ft 229 kts
2026-04-26 20:41 4.76661 -74.17885 10805 ft 250 kts 23°
2026-04-26 20:41 4.78304 -74.17145 11056 ft 270 kts 25°
2026-04-26 20:42 4.80033 -74.16322 11652 ft 278 kts 25°
2026-04-26 20:42 4.81792 -74.15477 12417 ft 282 kts 25°
2026-04-26 20:42 4.83578 -74.14627 13187 ft 286 kts 25°
2026-04-26 20:42 4.85393 -74.13774 13946 ft 289 kts 25°
2026-04-26 20:43 4.87195 -74.12914 14610 ft 293 kts 29°
2026-04-26 20:43 4.88809 -74.11613 15011 ft 308 kts 44°
2026-04-26 20:43 4.90404 -74.10051 15176 ft 332 kts 45°
2026-04-26 20:43 4.92093 -74.08358 15295 ft 354 kts 45°
2026-04-26 20:44 4.93934 -74.06630 15311 ft 369 kts 36°
2026-04-26 20:44 4.96213 -74.05401 15823 ft 375 kts 23°
2026-04-26 20:44 4.98624 -74.04353 16404 ft 379 kts 22°
2026-04-26 20:44 5.01056 -74.03305 16679 ft 382 kts 22°
2026-04-26 20:45 5.03515 -74.02248 17181 ft 385 kts 22°
2026-04-26 20:45 5.05983 -74.01186 17793 ft 388 kts 22°
2026-04-26 20:45 5.08478 -74.00116 18393 ft 391 kts 23°
2026-04-26 20:45 5.10962 -73.99048 18909 ft 394 kts 23°
2026-04-26 20:46 5.13491 -73.97956 19403 ft 398 kts 23°
2026-04-26 20:46 5.16047 -73.96851 19885 ft 401 kts 23°
2026-04-26 20:46 5.18624 -73.95739 20377 ft 405 kts 23°
2026-04-26 20:46 5.21226 -73.94617 20857 ft 408 kts 24°
2026-04-26 20:47 5.23846 -73.93489 21335 ft 411 kts 24°
2026-04-26 20:47 5.24740 -73.93112 21506 ft 412 kts 22°
2026-04-26 20:47 5.28404 -73.92041 22118 ft 417 kts 14°
2026-04-26 20:47 5.31233 -73.91344 22581 ft 420 kts 14°
2026-04-26 20:48 5.34075 -73.90639 23028 ft 423 kts 14°
2026-04-26 20:48 5.36943 -73.89922 23461 ft 427 kts 15°
2026-04-26 20:48 5.39834 -73.89198 23839 ft 429 kts 15°
2026-04-26 20:48 5.42746 -73.88471 24196 ft 432 kts 15°
2026-04-26 20:49 5.45677 -73.87739 24563 ft 435 kts 14°
2026-04-26 20:49 5.48617 -73.87005 24938 ft 437 kts 15°
2026-04-26 20:49 5.51577 -73.86270 25296 ft 440 kts 15°
2026-04-26 20:49 5.54558 -73.85541 25657 ft 442 kts 14°
2026-04-26 20:50 5.57575 -73.84867 25999 ft 445 kts 13°
2026-04-26 20:50 5.60622 -73.84244 26362 ft 447 kts 12°
2026-04-26 20:50 5.63641 -73.83654 26700 ft 450 kts 12°
2026-04-26 20:50 5.66730 -73.83053 27052 ft 452 kts 12°
2026-04-26 20:51 5.69830 -73.82442 27397 ft 454 kts 12°
2026-04-26 20:51 5.72938 -73.81817 27733 ft 457 kts 12°
2026-04-26 20:51 5.76064 -73.81178 28072 ft 459 kts 13°
2026-04-26 20:51 5.79201 -73.80527 28420 ft 462 kts 13°
2026-04-26 20:52 5.82350 -73.79870 28749 ft 464 kts 13°
2026-04-26 20:52 5.85526 -73.79207 29050 ft 467 kts 13°
2026-04-26 20:52 5.88713 -73.78544 29357 ft 469 kts 13°
2026-04-26 20:52 5.91923 -73.77877 29662 ft 472 kts 13°
2026-04-26 20:53 5.95147 -73.77209 29959 ft 474 kts 13°
2026-04-26 20:53 5.98387 -73.76541 30225 ft 477 kts 13°
2026-04-26 20:53 6.01642 -73.75876 30440 ft 479 kts 12°
2026-04-26 20:53 6.04916 -73.75211 30709 ft 481 kts 12°
2026-04-26 20:54 6.08163 -73.74548 30953 ft 483 kts 12°
2026-04-26 20:54 6.11460 -73.73868 31193 ft 485 kts 12°
2026-04-26 20:54 6.14768 -73.73184 31469 ft 485 kts 12°
2026-04-26 20:54 6.18069 -73.72501 31825 ft 484 kts 12°
2026-04-26 20:55 6.21374 -73.71819 32183 ft 483 kts 12°
2026-04-26 20:55 6.24672 -73.71141 32508 ft 484 kts 12°
2026-04-26 20:55 6.27971 -73.70465 32850 ft 483 kts 12°
2026-04-26 20:55 6.31265 -73.69789 33180 ft 483 kts 12°
2026-04-26 20:56 6.34556 -73.69111 33520 ft 483 kts 12°
2026-04-26 20:56 6.37846 -73.68432 33879 ft 483 kts 12°
2026-04-26 20:56 6.41140 -73.67751 34210 ft 482 kts 12°
2026-04-26 20:56 6.44425 -73.67107 34535 ft 481 kts
2026-04-26 20:57 6.47760 -73.66870 34866 ft 480 kts 359°
2026-04-26 20:57 6.51080 -73.67158 35196 ft 479 kts 349°
2026-04-26 20:57 6.54273 -73.67902 35526 ft 477 kts 345°
2026-04-26 20:57 6.57485 -73.68741 35804 ft 476 kts 345°
2026-04-26 20:58 6.60683 -73.69573 35888 ft 474 kts 345°
2026-04-26 20:58 6.67057 -73.71221 35898 ft 471 kts 345°
2026-04-26 20:59 6.73408 -73.72869 35866 ft 471 kts 345°
2026-04-26 20:59 6.79758 -73.74530 35849 ft 471 kts 345°
2026-04-26 21:00 6.86100 -73.76186 35831 ft 471 kts 345°
2026-04-26 21:00 6.92443 -73.77842 35814 ft 471 kts 345°
2026-04-26 21:01 6.98783 -73.79509 35811 ft 471 kts 342°
2026-04-26 21:01 7.04640 -73.82358 35862 ft 468 kts 323°
2026-04-26 21:02 7.09522 -73.86593 35860 ft 466 kts 316°
2026-04-26 21:02 7.14344 -73.90971 35854 ft 466 kts 317°
2026-04-26 21:03 7.19174 -73.95334 35861 ft 466 kts 317°
2026-04-26 21:03 7.24003 -73.99696 35863 ft 467 kts 317°
2026-04-26 21:04 7.28828 -74.04077 35854 ft 467 kts 316°
2026-04-26 21:04 7.33664 -74.08473 35875 ft 468 kts 317°
2026-04-26 21:05 7.38512 -74.12874 35878 ft 469 kts 317°
2026-04-26 21:05 7.43370 -74.17280 35878 ft 469 kts 317°
2026-04-26 21:06 7.48222 -74.21687 35901 ft 470 kts 317°
2026-04-26 21:06 7.53052 -74.26076 35913 ft 470 kts 317°
2026-04-26 21:07 7.57911 -74.30491 35917 ft 470 kts 317°
2026-04-26 21:07 7.62767 -74.34903 35924 ft 470 kts 317°
2026-04-26 21:08 7.67634 -74.39335 35913 ft 471 kts 316°
2026-04-26 21:08 7.72509 -74.43766 35928 ft 472 kts 317°
2026-04-26 21:09 7.77431 -74.48147 35920 ft 473 kts 322°
2026-04-26 21:09 7.83189 -74.51324 35904 ft 474 kts 340°
2026-04-26 21:10 7.89450 -74.53449 35901 ft 474 kts 341°
2026-04-26 21:10 7.95662 -74.55578 35896 ft 475 kts 341°
2026-04-26 21:11 8.01923 -74.57722 35899 ft 475 kts 341°
2026-04-26 21:11 8.08189 -74.59865 35892 ft 475 kts 340°
2026-04-26 21:12 8.14446 -74.62008 35888 ft 475 kts 340°
2026-04-26 21:12 8.20712 -74.64152 35876 ft 474 kts 340°
2026-04-26 21:13 8.26927 -74.66274 35871 ft 474 kts 340°
2026-04-26 21:13 8.33188 -74.68418 35870 ft 474 kts 340°
2026-04-26 21:14 8.39441 -74.70569 35863 ft 474 kts 340°
2026-04-26 21:14 8.45693 -74.72720 35862 ft 475 kts 340°
2026-04-26 21:15 8.51948 -74.74864 35861 ft 475 kts 340°
2026-04-26 21:15 8.58212 -74.77001 35859 ft 475 kts 340°
2026-04-26 21:16 8.64441 -74.79135 35862 ft 475 kts 340°
2026-04-26 21:16 8.70693 -74.81282 35860 ft 475 kts 340°
2026-04-26 21:17 8.76950 -74.83434 35864 ft 475 kts 340°
2026-04-26 21:17 8.83207 -74.85580 35860 ft 475 kts 340°
2026-04-26 21:18 8.89473 -74.87733 35840 ft 476 kts 340°
2026-04-26 21:18 8.92611 -74.88815 35453 ft 478 kts 340°
2026-04-26 21:18 8.95794 -74.89910 34309 ft 488 kts 340°
2026-04-26 21:18 8.99039 -74.91024 33172 ft 497 kts 340°
2026-04-26 21:19 9.02334 -74.92157 32107 ft 501 kts 341°
2026-04-26 21:19 9.05643 -74.93295 31231 ft 502 kts 341°
2026-04-26 21:19 9.08940 -74.94427 30456 ft 499 kts 341°
2026-04-26 21:19 9.12153 -74.95732 29705 ft 496 kts 334°
2026-04-26 21:20 9.15243 -74.97241 28930 ft 491 kts 334°
2026-04-26 21:20 9.18300 -74.98736 28211 ft 485 kts 334°
2026-04-26 21:20 9.21275 -75.00196 27527 ft 479 kts 334°
2026-04-26 21:20 9.24250 -75.01659 26858 ft 473 kts 333°
2026-04-26 21:21 9.27192 -75.03109 26217 ft 467 kts 333°
2026-04-26 21:21 9.30093 -75.04541 25600 ft 461 kts 333°
2026-04-26 21:21 9.32965 -75.05955 24999 ft 455 kts 333°
2026-04-26 21:21 9.35799 -75.07347 24399 ft 450 kts 333°
2026-04-26 21:22 9.38606 -75.08727 23811 ft 445 kts 333°
2026-04-26 21:22 9.41377 -75.10089 23207 ft 440 kts 333°
2026-04-26 21:22 9.44114 -75.11436 22537 ft 435 kts 333°
2026-04-26 21:23 9.49504 -75.14089 21264 ft 427 kts 333°
2026-04-26 21:23 9.52162 -75.15396 20655 ft 423 kts 333°
2026-04-26 21:23 9.54761 -75.16673 20070 ft 419 kts 333°
2026-04-26 21:23 9.57370 -75.17955 19488 ft 416 kts 333°
2026-04-26 21:24 9.59960 -75.19229 18921 ft 412 kts 333°
2026-04-26 21:24 9.62536 -75.20500 18365 ft 409 kts 333°
2026-04-26 21:24 9.65086 -75.21758 17789 ft 406 kts 333°
2026-04-26 21:24 9.67614 -75.23004 17192 ft 403 kts 333°
2026-04-26 21:25 9.70131 -75.24245 16622 ft 400 kts 333°
2026-04-26 21:25 9.72620 -75.25474 16091 ft 396 kts 333°
2026-04-26 21:25 9.75087 -75.26692 15561 ft 392 kts 333°
2026-04-26 21:25 9.77530 -75.27898 15044 ft 389 kts 333°
2026-04-26 21:26 9.79960 -75.29097 14522 ft 386 kts 334°
2026-04-26 21:26 9.82366 -75.30282 14048 ft 383 kts 334°
2026-04-26 21:26 9.84749 -75.31455 13545 ft 380 kts 334°
2026-04-26 21:26 9.87084 -75.32607 12999 ft 376 kts 334°
2026-04-26 21:27 9.89428 -75.33762 12601 ft 369 kts 334°
2026-04-26 21:27 9.91664 -75.34864 12466 ft 344 kts 334°
2026-04-26 21:27 9.93739 -75.35889 12223 ft 322 kts 334°
2026-04-26 21:27 9.95727 -75.36871 11688 ft 314 kts 334°
2026-04-26 21:28 9.97674 -75.37836 11076 ft 309 kts 334°
2026-04-26 21:28 9.99595 -75.38786 10459 ft 305 kts 334°
2026-04-26 21:28 10.01488 -75.39720 9841 ft 301 kts 334°
2026-04-26 21:28 10.03359 -75.40643 9148 ft 297 kts 334°
2026-04-26 21:29 10.05192 -75.41549 8380 ft 296 kts 334°
2026-04-26 21:29 10.07046 -75.42464 7660 ft 294 kts 334°
2026-04-26 21:29 10.08852 -75.43359 7195 ft 282 kts 334°
2026-04-26 21:29 10.10580 -75.44214 6814 ft 269 kts 334°
2026-04-26 21:30 10.12226 -75.45027 6457 ft 257 kts 334°
2026-04-26 21:30 10.13800 -75.45803 6108 ft 246 kts 334°
2026-04-26 21:30 10.15284 -75.46536 5772 ft 236 kts 334°
2026-04-26 21:30 10.16249 -75.47012 5561 ft 229 kts 334°
2026-04-26 21:31 10.18120 -75.47937 5160 ft 218 kts 334°
2026-04-26 21:31 10.19468 -75.48605 4861 ft 213 kts 335°
2026-04-26 21:31 10.20781 -75.49254 4577 ft 208 kts 335°
2026-04-26 21:31 10.22050 -75.49881 4293 ft 203 kts 335°
2026-04-26 21:32 10.23306 -75.50503 4021 ft 198 kts 334°
2026-04-26 21:32 10.24534 -75.51110 3751 ft 194 kts 334°
2026-04-26 21:32 10.25737 -75.51703 3491 ft 190 kts 336°
2026-04-26 21:32 10.26985 -75.51977 3260 ft 179 kts
2026-04-26 21:33 10.28205 -75.51924 3006 ft 172 kts
2026-04-26 21:33 10.29379 -75.51877 2758 ft 166 kts
2026-04-26 21:33 10.30502 -75.51833 2548 ft 163 kts
2026-04-26 21:33 10.31632 -75.51789 2327 ft 162 kts
2026-04-26 21:34 10.32749 -75.51746 2093 ft 158 kts
2026-04-26 21:34 10.33844 -75.51703 1882 ft 157 kts
2026-04-26 21:34 10.34932 -75.51660 1666 ft 155 kts
2026-04-26 21:34 10.35993 -75.51618 1459 ft 149 kts
2026-04-26 21:35 10.36998 -75.51578 1269 ft 141 kts
2026-04-26 21:35 10.37962 -75.51540 1097 ft 136 kts
2026-04-26 21:35 10.38899 -75.51503 1044 ft 134 kts
2026-04-26 21:35 10.39807 -75.51467 987 ft 129 kts
2026-04-26 21:36 10.40721 -75.51422 718 ft 133 kts
2026-04-26 21:36 10.41341 -75.51387 477 ft 136 kts
2026-04-26 21:36 10.42567 -75.51356 174 ft 128 kts
2026-04-26 21:36 10.43428 -75.51324 20 ft 116 kts
2026-04-26 21:37 10.44085 -75.51304 12 ft 70 kts
2026-04-26 21:37 10.44420 -75.51287 15 ft 35 kts
2026-04-26 21:37 10.44537 -75.51318 15 ft 13 kts 294°
2026-04-26 21:37 10.44541 -75.51349 15 ft 0 kts 278°
2026-04-26 21:38 10.44542 -75.51353 15 ft 1 kts 278°
2026-04-26 21:38 10.44542 -75.51359 15 ft 1 kts 278°
2026-04-26 21:38 10.44544 -75.51371 15 ft 4 kts 278°
2026-04-26 21:38 10.44549 -75.51419 14 ft 7 kts 268°
2026-04-26 21:39 10.44547 -75.51467 14 ft 7 kts 269°
2026-04-26 21:39 10.44529 -75.51506 14 ft 6 kts 237°
2026-04-26 21:39 10.44523 -75.51544 14 ft 5 kts 269°
2026-04-26 21:39 10.44523 -75.51563 14 ft 0 kts 270°
2026-04-26 21:42 10.44523 -75.51565 14 ft 0 kts 271°